Regional Weather Roundup
Issued by NWS

Home | Current Version | Previous Version | Graphics & Text | Print | Product List | Glossary Off
Versions: 1 2 3 4 5 6 7 8 9 10 11 12 13 14 15 16 17 18 19 20 21 22 23 24 25 26 27 28 29 30 31 32 33 34 35 36 37 38 39 40 41 42 43 44 45 46 47 48 49 50

000
ASUS43 KMKX 280600
RWRWI

WISCONSIN REGIONAL WEATHER ROUNDUP
NATIONAL WEATHER SERVICE MILWAUKEE/SULLIVAN WI
100 AM CDT FRI AUG 28 2015

NOTE: "FAIR" INDICATES FEW OR NO CLOUDS BELOW 12,000 FEET WITH NO
SIGNIFICANT WEATHER AND/OR OBSTRUCTIONS TO VISIBILITY.

WIZ001-002-006>008-014>016-023>028-280700-
NORTHWEST WISCONSIN

CITY           SKY/WX    TMP DP  RH WIND       PRES   REMARKS
SUPERIOR ARPT  CLOUDY    56  51  83 CALM      29.99S
ASHLAND        MOCLDY    56  56 100 CALM      30.00S
6HR MIN TEMP:  55; 6HR MAX TEMP:  65;

HAYWARD        MOCLDY    62  57  83 S5        30.01F
6HR MIN TEMP:  62; 6HR MAX TEMP:  68;

SIREN          FAIR      62  59  90 S3        30.00S
CUMBERLAND     FAIR      57  55  94 CALM      30.03S
RICE LAKE      FAIR      60  57  90 SE5       30.03F
CHETEK         FAIR     N/A N/A N/A E6        30.03F
LADYSMITH      CLOUDY    62  58  86 SE3       30.05F
EAU CLAIRE     NOT AVBL
MENOMONIE      FAIR      60  59  96 E3        30.04R
NEW RICHMOND   FAIR      60  59  94 S5        30.03R
OSCEOLA        FAIR      59  59 100 SE5       30.04S
$$

WIZ003>005-009-010-017-018-280700-
NORTH CENTRAL WISCONSIN

CITY           SKY/WX    TMP DP  RH WIND       PRES   REMARKS
MANITOWISH WTR MOCLDY    60  58  95 S5        30.05S
ARBOR VITAE    FAIR      59  57  91 CALM      30.06S
WOODRUFF       FAIR      59  57  91 CALM      30.06S
RHINELANDER    FAIR      56  54  93 CALM      30.08S
6HR MIN TEMP:  56; 6HR MAX TEMP:  68;

EAGLE RIVER    FAIR      56  55  95 CALM      30.06S
LAND O LAKES   CLOUDY    60  56  87 CALM      30.07S
PHILLIPS       CLOUDY    60  57  90 SW5       30.05R
6HR MIN TEMP:  59; 6HR MAX TEMP:  68;

TOMAHAWK       FAIR      55  54  97 CALM      30.07S
MEDFORD        MOCLDY    57  56  96 SE6       30.07S
MERRILL        FAIR      54  54 100 CALM      30.08S
$$

WIZ029-030-035-036-043>047-280700-
CENTRAL WISCONSIN

CITY           SKY/WX    TMP DP  RH WIND       PRES   REMARKS
WAUSAU         FAIR      62  58  86 S6        30.06F
6HR MIN TEMP:  59; 6HR MAX TEMP:  70;

MOSINEE        FAIR      57  57 100 S7        30.09S
MARSHFIELD     FAIR      59  54  83 S5        30.07S
6HR MIN TEMP:  59; 6HR MAX TEMP:  69;

STEVENS POINT  FAIR      58  55  91 S5        30.09S
WAUPACA        FAIR      60  59  96 CALM      30.10R
WAUTOMA        NOT AVBL
WISC RAPIDS    LGT RAIN  63  56  78 S6        30.08F
6HR MIN TEMP:  60; 6HR MAX TEMP:  71; 6HR PCP: TRACE;

CAMP DOUGLAS   NOT AVBL
$$

WIZ011>013-019>022-031-037>040-048>050-280700-
NORTHEAST WISCONSIN

CITY           SKY/WX    TMP DP  RH WIND       PRES   REMARKS
ANTIGO         FAIR      55  54  97 S5        30.09S
SHAWANO        FAIR      62  57  84 CALM      30.08S
OCONTO         FAIR      57  57 100 CALM      30.07S
STURGEON BAY   FAIR      59  52  77 S10       30.11S
6HR MIN TEMP:  57; 6HR MAX TEMP:  63;

GREEN BAY      FAIR      57  55  93 S6        30.10R
6HR MIN TEMP:  57; 6HR MAX TEMP:  68;

MANITOWOC      NOT AVBL
APPLETON       FAIR      59  55  88 S6        30.08S
CLINTONVILLE   FAIR      55  54  94 S3        30.08S
OSHKOSH        MOCLDY    60  55  83 S8        30.10R
6HR MIN TEMP:  57; 6HR MAX TEMP:  67;

$$

WIZ032>034-041-042-053>061-280700-
SOUTHWEST WISCONSIN

CITY           SKY/WX    TMP DP  RH WIND       PRES   REMARKS
LA CROSSE      FAIR      67  60  78 S8        30.05F
6HR MIN TEMP:  64; 6HR MAX TEMP:  74;

SPARTA         MOCLDY    57  55  94 CALM      30.08R
VIROQUA        FAIR      61  58  90 S6        30.10R
BOSCOBEL       FAIR      61  59  93 CALM      30.09R
6HR MIN TEMP:  59; 6HR MAX TEMP:  73;

PRAIRIE DU CHI FAIR      65  58  76 E5        30.07S
PLATTEVILLE    FAIR      62  60  91 SE7       30.10S
$$

WIZ056-057-062-063-064-067-068-280700-
SOUTH CENTRAL WISCONSIN

CITY           SKY/WX    TMP DP  RH WIND       PRES   REMARKS
REEDSBURG      FAIR      59  57  94 CALM      30.10R
BARABOO/DELLS  FAIR      60  56  87 S7        30.10R
LONE ROCK      NOT AVBL
MINERAL POINT  FAIR      61  59  94 S3        30.11S
MADISON        FAIR      62  56  80 S8        30.11R
6HR MIN TEMP:  62; 6HR MAX TEMP:  71;

MIDDLETON      FAIR      63  56  78 S6        30.12R
WATERTOWN      FAIR      58  55  88 CALM      30.12S
MONROE         FAIR      59  55  88 S6        30.12R
JANESVILLE     FAIR      59  55  88 E3        30.12S
$$

WIZ051-052-058>065-066-070>072-280700-
SOUTHEAST WISCONSIN

CITY           SKY/WX    TMP DP  RH WIND       PRES   REMARKS
MILWAUKEE      FAIR      58  52  80 SW3       30.12F
6HR MIN TEMP:  57; 6HR MAX TEMP:  66;

WAUKESHA       FAIR      55  52  88 S6        30.14S
MILWAUKEE/TIMM FAIR      59  52  77 SW3       30.14S
RACINE         FAIR      58  54  86 S3        30.14F
6HR MIN TEMP:  57; 6HR MAX TEMP:  65;

BURLINGTON     FAIR      50  49  98 CALM      30.13F
KENOSHA        FAIR      54  51  90 S3        30.13F
6HR MIN TEMP:  52; 6HR MAX TEMP:  66;

FOND DU LAC    MOCLDY    59  55  87 S6        30.12R
6HR MIN TEMP:  59; 6HR MAX TEMP:  69;

SHEBOYGAN      FAIR      54  52  93 CALM      30.12S
6HR MIN TEMP:  52; 6HR MAX TEMP:  63;

WEST BEND      FAIR      55  50  82 CALM      30.13S
JUNEAU         FAIR      57  53  85 S3        30.13R
$$

LSZ147-162-280700-
LAKE SUPERIOR

STATION/POSITION TIME  TEMP    WIND        PRES    WAVE
                       AIR SEA DIR/SP/G            HT/PER
                 (UTC) (F)     (DEG/KT/KT) (MB)    (FT/S)
W MID LAKE BUOY  0450   59 56  160/  8/  8 1015.5F   0
DEVILS ISLAND    0500   60      80/  2/  2 1015.6F
PORT WING        0500   57     280/  2/  3 1015.9
SAXON HARBOR     0500   62     200/  1/  4 1015.2
$$

LMZ867-665-643>646-280700-
LAKE MICHIGAN

STATION/POSITION TIME  TEMP    WIND        PRES    WAVE
                       AIR SEA DIR/SP/G            HT/PER
                 (UTC) (F)     (DEG/KT/KT) (MB)    (FT/S)
CHAMBERS ISLAND  0500   62     160/  4/  8 1018.3F
S GREEN BAY BUOY 0530   63     190/ 12/ 14 1019.9F
N MID LAKE BUOY  0450   63 64  210/ 17/ 19 1018.7F   3/ 4
NORTHPORT PIER   0500   62     160/  5/ 14 1018.3F
SISTER BAY       0519   61     170/ 11/ 13   N/A
ALGOMA LAKESHORE 0544          180/  4/  5   N/A
KEWAUNEE LAKESHO 0500   51     180/  7/  8 1018.2F
SHEBOYGAN LAKESH 0500   61     210/  8/  8 1020.1F
PORT WASHINGTON  0540   53      CALM  /  2 1020.7S
ATWATER BUOY     0500   53 47  180/  6/  6 1021.8R
MILWAUKEE LAKESH 0500   57     210/  2/  2   N/A
S MID LAKE BUOY  0450   66 69  130/  8/ 10 1020.3F   0
KENOSHA   LAKESH 0500   63     210/  6/  7 1020.3R
$$

TC  - TEMPERATURE IN CELSIUS
VSB - VISIBILITY IN STATUTE MILES
WCI - WIND CHILL INDEX
HX  - HEAT INDEX



USA.gov is the U.S. government's official web portal to all federal, state and local government web resources and services.